This demonstration page uses our WeatherBlox Daily Observations layout. Learn more.

Left ArrowRight Arrow

Hourly Observations for May 8, 2015

Temp ( °F °C ) Dew Point ( °F °C ) Humidity (%) Winds ( mph kmh ) Pressure ( in mb ) Visibility ( mi km ) Precip ( " mm )
12:15 am 00:15 Clear 64 18 63 17 94 94 N N/A 30.12 1020 10 16 N/A
12:35 am 00:35 Clear 66 19 63 17 88 88 S 3 6 30.12 1020 10 16 N/A
12:55 am 00:55 Clear 66 19 63 17 88 88 N N/A 30.12 1020 10 16 N/A
1:15 am 01:15 Clear 63 17 61 16 94 94 N N/A 30.12 1020 10 16 N/A
1:35 am 01:35 Clear 63 17 61 16 94 94 N N/A 30.12 1020 10 16 N/A
1:55 am 01:55 Clear 63 17 61 16 94 94 N N/A 30.12 1020 10 16 N/A
2:15 am 02:15 Clear 63 17 61 16 94 94 N N/A 30.12 1020 10 16 N/A
2:35 am 02:35 Clear 63 17 61 16 94 94 N N/A 30.12 1020 10 16 N/A
2:55 am 02:55 Clear 61 16 61 16 100 100 N N/A 30.12 1020 10 16 N/A
3:15 am 03:15 Clear 61 16 61 16 100 100 N N/A 30.12 1020 10 16 N/A
3:35 am 03:35 Clear 61 16 61 16 100 100 N N/A 30.12 1020 10 16 N/A
3:55 am 03:55 Clear 61 16 61 16 100 100 SSE 3 6 30.12 1020 10 16 N/A
4:15 am 04:15 Clear 59 15 59 15 100 100 N N/A 30.12 1020 10 16 N/A
4:35 am 04:35 Clear 59 15 59 15 100 100 N N/A 30.12 1020 7 11 N/A
4:55 am 04:55 Clear 59 15 59 15 100 100 N N/A 30.12 1020 7 11 N/A
5:15 am 05:15 Clear 57 14 57 14 100 100 N N/A 30.12 1020 7 11 N/A
5:35 am 05:35 Clear 59 15 59 15 100 100 N N/A 30.15 1021 10 16 N/A
5:55 am 05:55 Clear 59 15 59 15 100 100 N N/A 30.15 1021 10 16 N/A
6:15 am 06:15 Sunny 57 14 57 14 100 100 N N/A 30.15 1021 7 11 N/A
6:35 am 06:35 Sunny with Mist and Fog 57 14 57 14 100 100 N N/A 30.15 1021 5 8 N/A
6:55 am 06:55 Sunny 59 15 59 15 100 100 N N/A 30.15 1021 10 16 N/A
7:15 am 07:15 Sunny 59 15 59 15 100 100 N N/A 30.18 1022 7 11 N/A
7:35 am 07:35 Sunny 63 17 63 17 100 100 N N/A 30.18 1022 7 11 N/A
7:55 am 07:55 Sunny 63 17 63 17 100 100 N N/A 30.18 1022 7 11 N/A
8:15 am 08:15 Sunny 64 18 63 17 94 94 N N/A 30.18 1022 10 16 N/A
8:35 am 08:35 Sunny 66 19 63 17 88 88 N N/A 30.18 1022 10 16 N/A
8:55 am 08:55 Sunny 66 19 63 17 88 88 N N/A 30.18 1022 10 16 N/A
9:15 am 09:15 Sunny 68 20 63 17 83 83 N N/A 30.18 1022 10 16 N/A
9:35 am 09:35 Sunny 72 22 63 17 73 73 N N/A 30.15 1021 10 16 N/A
9:55 am 09:55 Sunny 72 22 64 18 78 78 N N/A 30.18 1022 10 16 N/A
10:15 am 10:15 Sunny 73 23 64 18 74 74 SSW 3 6 30.15 1021 10 16 N/A
10:35 am 10:35 Sunny 77 25 63 17 61 61 S 5 7 30.18 1022 10 16 N/A
10:55 am 10:55 Sunny 77 25 63 17 61 61 SSW 6 9 30.18 1022 10 16 N/A
11:15 am 11:15 Sunny 77 25 63 17 61 61 S 12 19 30.18 1022 10 16 N/A
11:35 am 11:35 Sunny 77 25 63 17 61 61 S 12 19 30.18 1022 10 16 N/A
11:55 am 11:55 Sunny 79 26 63 17 58 58 SSE 8 13 30.18 1022 10 16 N/A
12:15 pm 12:15 Partly Cloudy 79 26 63 17 58 58 SSW 7 11 30.18 1022 10 16 N/A
12:35 pm 12:35 Partly Cloudy 81 27 63 17 54 54 SSW 8 13 30.18 1022 10 16 N/A
12:55 pm 12:55 Sunny 81 27 61 16 51 51 S 9 15 30.15 1021 10 16 N/A
1:15 pm 13:15 Partly Cloudy 81 27 63 17 54 54 S 12 19 30.15 1021 10 16 N/A
1:35 pm 13:35 Partly Cloudy 81 27 61 16 51 51 S 13 20 30.15 1021 10 16 N/A
1:55 pm 13:55 Partly Cloudy 82 28 61 16 48 48 SSW 8 13 30.15 1021 10 16 N/A
2:15 pm 14:15 Mostly Cloudy 82 28 61 16 48 48 SW 5 7 30.15 1021 10 16 N/A
2:35 pm 14:35 Mostly Cloudy 81 27 61 16 51 51 S 8 13 30.12 1020 10 16 N/A
2:55 pm 14:55 Mostly Cloudy 82 28 61 16 48 48 SSW 7 11 30.12 1020 10 16 N/A
3:15 pm 15:15 Mostly Cloudy 82 28 61 16 48 48 ESE 6 9 30.12 1020 10 16 N/A
3:35 pm 15:35 Mostly Cloudy 82 28 61 16 48 48 S 6 9 30.12 1020 10 16 N/A
3:55 pm 15:55 Partly Cloudy 82 28 61 16 48 48 SSE 5 7 30.12 1020 10 16 N/A
4:15 pm 16:15 Mostly Cloudy 82 28 61 16 48 48 SSE 8 13 30.12 1020 10 16 N/A
4:35 pm 16:35 Mostly Cloudy 82 28 61 16 48 48 ESE 7 11 30.12 1020 10 16 N/A
4:55 pm 16:55 Partly Cloudy 82 28 61 16 48 48 SSE 7 11 30.09 1019 10 16 N/A
5:15 pm 17:15 Partly Cloudy 82 28 61 16 48 48 SE 7 11 30.09 1019 10 16 N/A
5:35 pm 17:35 Sunny 81 27 61 16 51 51 SE 6 9 30.09 1019 10 16 N/A
5:55 pm 17:55 Sunny 81 27 59 15 48 48 SE 6 9 30.09 1019 10 16 N/A
6:15 pm 18:15 Sunny 81 27 59 15 48 48 SSE 6 9 30.09 1019 10 16 N/A
6:35 pm 18:35 Sunny 81 27 59 15 48 48 SE 5 7 30.09 1019 10 16 N/A
6:55 pm 18:55 Sunny 81 27 61 16 51 51 S 8 13 30.09 1019 10 16 N/A
7:15 pm 19:15 Sunny 81 27 61 16 51 51 SSE 6 9 30.09 1019 10 16 N/A
7:35 pm 19:35 Sunny 81 27 61 16 51 51 SSE 7 11 30.09 1019 10 16 N/A
7:55 pm 19:55 Sunny 79 26 63 17 58 58 S 10 17 30.09 1019 10 16 N/A
8:15 pm 20:15 Clear 77 25 63 17 61 61 S 8 13 30.12 1020 10 16 N/A
8:35 pm 20:35 Clear 77 25 63 17 61 61 S 12 19 30.12 1020 10 16 N/A
8:55 pm 20:55 Clear 77 25 63 17 61 61 S 10 17 30.12 1020 10 16 N/A
9:15 pm 21:15 Clear 75 24 63 17 65 65 S 8 13 30.15 1021 10 16 N/A
9:35 pm 21:35 Clear 73 23 63 17 69 69 S 8 13 30.15 1021 10 16 N/A
9:55 pm 21:55 Clear 72 22 63 17 73 73 S 5 7 30.15 1021 10 16 N/A
10:15 pm 22:15 Clear 72 22 63 17 73 73 S 3 6 30.15 1021 10 16 N/A
10:35 pm 22:35 Clear 70 21 61 16 73 73 S 5 7 30.15 1021 10 16 N/A
10:55 pm 22:55 Clear 70 21 61 16 73 73 N N/A 30.15 1021 10 16 N/A
11:15 pm 23:15 Clear 70 21 61 16 73 73 N N/A 30.15 1021 10 16 N/A
11:35 pm 23:35 Clear 68 20 59 15 73 73 S 3 6 30.18 1022 10 16 N/A
11:55 pm 23:55 Clear 68 20 59 15 73 73 SSE 5 7 30.18 1022 10 16 N/A

Powered by AerisWeather